Back to catalog

STARLINK-37755

AliveCommunicationsSSO
NORAD 69234·PAYLOAD·🇺🇸 United States

Launched May 26, 2026 from Vandenberg Space Force Base

Loading…

Next Passes (next 24 hours)

TLE

FreshSource: CelesTrak SupGP

Epoch: Sep 14, 2026, 22:53 UTC

1 69234C 26115Z   26257.95395833  .00047258  00000+0  14670-2 0  2578
2 69234  97.2832 274.9667 0001416  88.1029 343.7667 15.33415165    19

Track STARLINK-37755 in real time with AllMySat

Download on the App Store